TimeCST,TemperatureF,Dew PointF,Humidity,Sea Level PressureIn,VisibilityMPH,Wind Direction,Wind SpeedMPH,Gust SpeedMPH,PrecipitationIn,Events,Conditions,WindDirDegrees,DateUTC
12:56 AM,32.9,26.1,76,30.19,10.0,Calm,Calm,-,N/A,,Overcast,0,2013-03-04 06:56:00
1:56 AM,32.9,26.1,76,30.19,10.0,Calm,Calm,-,N/A,,Overcast,0,2013-03-04 07:56:00
2:56 AM,32.9,25.2,73,30.19,10.0,Calm,Calm,-,N/A,,Overcast,0,2013-03-04 08:56:00
3:56 AM,32.9,26.1,76,30.20,10.0,Calm,Calm,-,N/A,,Overcast,0,2013-03-04 09:56:00
4:56 AM,32.9,25.2,73,30.19,10.0,Calm,Calm,-,N/A,,Scattered Clouds,0,2013-03-04 10:56:00
6:56 AM,34.0,24.1,67,30.20,10.0,SE,4.6,-,N/A,,Clear,140,2013-03-04 12:56:00
7:56 AM,36.9,22.1,55,30.20,10.0,SSE,8.1,-,N/A,,Clear,150,2013-03-04 13:56:00
8:56 AM,39.9,22.1,49,30.19,10.0,SSE,8.1,-,N/A,,Clear,150,2013-03-04 14:56:00
9:56 AM,43.9,22.1,42,30.17,10.0,South,6.9,-,N/A,,Clear,170,2013-03-04 15:56:00
10:56 AM,46.9,23.0,39,30.15,10.0,SSE,9.2,-,N/A,,Clear,150,2013-03-04 16:56:00
11:56 AM,50.9,25.2,37,30.10,10.0,South,10.4,-,N/A,,Clear,170,2013-03-04 17:56:00
12:56 PM,54.9,25.2,32,30.05,10.0,South,10.4,-,N/A,,Clear,190,2013-03-04 18:56:00
1:56 PM,55.9,27.1,33,30.01,10.0,South,12.7,-,N/A,,Clear,170,2013-03-04 19:56:00
2:56 PM,56.8,28.0,33,29.98,10.0,South,12.7,20.7,N/A,,Clear,190,2013-03-04 20:56:00
3:56 PM,56.8,28.0,33,29.95,10.0,South,15.0,-,N/A,,Clear,180,2013-03-04 21:56:00
4:56 PM,54.9,28.0,36,29.93,10.0,SSE,12.7,19.6,N/A,,Clear,160,2013-03-04 22:56:00
5:56 PM,54.0,29.1,39,29.97,10.0,Calm,Calm,-,N/A,,Clear,0,2013-03-04 23:56:00
6:56 PM,54.0,29.1,39,29.99,10.0,South,6.9,-,N/A,,Mostly Cloudy,170,2013-03-05 00:56:00
7:56 PM,52.9,30.0,42,29.97,10.0,South,6.9,-,N/A,,Overcast,180,2013-03-05 01:56:00
8:56 PM,52.9,29.1,40,29.96,10.0,South,10.4,-,N/A,,Overcast,170,2013-03-05 02:56:00
9:56 PM,52.9,30.0,42,29.95,10.0,South,10.4,-,N/A,,Overcast,180,2013-03-05 03:56:00
10:56 PM,52.9,31.1,43,29.93,10.0,South,11.5,-,N/A,,Mostly Cloudy,170,2013-03-05 04:56:00
11:56 PM,54.0,32.9,45,29.91,10.0,South,10.4,18.4,N/A,,Mostly Cloudy,170,2013-03-05 05:56:00